Location: Chuathbaluk
(61.5726°N, 159.2454°W)
Time: 02:16:02
(UTC+00:00)

SR - Pass Details

Date: 02 December 2020
Orbit: 575 x 880 km, 66.7° (Epoch: 23 January)

Event Time Altitude Azimuth Distance (km) Brightness Sun altitude
Rises 05:32:39 0° 221° (SW) 2,870 ? -27.1°
Reaches altitude 10° 05:34:50 10° 218° (SW) 2,002 ? -27.4°
Enters shadow 05:37:24 34° 207° (SSW) 1,070 ? -27.7°
